Ono, PA

11:36 PM EDT on August 26, 2016 (GMT -0400)
Muir Army Air Field

Weather History for KMUI - May, 2013

Change the Weather History Date:

Thursday, May 9, 2013

  Actual Average Record
Temperature  
Mean Temperature 58 °F -  
Max Temperature 69 °F 68 °F 87 °F (2000)
Min Temperature 49 °F 52 °F 38 °F (2016)
Degree Days  
Heating Degree Days 6    
Growing Degree Days 8 (Base 50)    
Moisture  
Dew Point 54 °F    
Average Humidity 97    
Maximum Humidity 100    
Minimum Humidity 64    
Precipitation  
Precipitation 0.06 in - - ()
Sea Level Pressure  
Sea Level Pressure 29.95 in    
Wind  
Wind Speed 1 mph (SW)    
Max Wind Speed 10 mph    
Max Gust Speed -    
Visibility 4 miles    
Events Fog , Rain    
Averages and records for this station are not official NWS values.
T = Trace of Precipitation, MM = Missing Value Source: NWS Daily Summary

Daily Weather History Graph

Daily Weather History Graph

Search for Another Location

Airport or City:

Trip Planner

Search our weather history database for the weather conditions in past years. The results will help you decide how hot, cold, wet, or windy it might be!

Date:

Astronomy

May. 09, 2013 Rise Set
Actual Time 5:55 AM EDT 8:10 PM EDT
Civil Twilight 5:25 AM EDT 8:40 PM EDT
Nautical Twilight 4:48 AM EDT 9:18 PM EDT
Astronomical Twilight 4:07 AM EDT 9:59 PM EDT
Moon 5:39 AM EDT (5/9) 8:03 PM EDT (5/9)
Length of Visible Light 15h 15m
Length of Day
14h 14m
Waning Crescent, 0% of the Moon is Illuminated
May 9
Waning Crescent
May 9
New
May 18
First Quarter
May 25
Full
May 31
Last Quarter

Hourly Weather History & Observations

Time (EDT) Temp. Dew Point Humidity Pressure Visibility Wind Dir Wind Speed Gust Speed Precip Events Conditions
12:00 AM 51.8 °F 51.8 °F 100% 29.97 in 1.0 mi Calm Calm - N/A   Clear
12:02 AM 51.8 °F 51.8 °F 100% 29.97 in 1.5 mi Calm Calm - N/A   Clear
12:04 AM 51.8 °F 51.8 °F 100% 29.97 in 2.0 mi Calm Calm - N/A   Clear
12:06 AM 51.8 °F 51.8 °F 100% 29.97 in 3.0 mi Calm Calm - N/A   Clear
12:58 AM 51.8 °F 51.8 °F 100% 29.98 in 7.0 mi Calm Calm - N/A   Partly Cloudy
1:03 AM 51.8 °F 51.8 °F 100% 29.96 in 6.0 mi Calm Calm - N/A   Light Drizzle
1:13 AM 51.8 °F 51.8 °F 100% 29.96 in 2.5 mi Calm Calm - N/A   Light Drizzle
1:14 AM 51.8 °F 51.8 °F 100% 29.96 in 2.5 mi Calm Calm - N/A   Clear
1:26 AM 51.8 °F 51.8 °F 100% 29.96 in 3.0 mi Calm Calm - N/A   Partly Cloudy
1:42 AM 51.8 °F 51.8 °F 100% 29.95 in 2.5 mi Calm Calm - N/A   Mostly Cloudy
1:58 AM 52.2 °F 52.2 °F 100% 29.96 in 2.5 mi Calm Calm - 0.00 in   Overcast
2:04 AM 51.8 °F 51.8 °F 100% 29.95 in 1.5 mi Calm Calm - N/A   Overcast
2:12 AM 53.6 °F 53.6 °F 100% 29.95 in 1.5 mi Calm Calm - N/A   Overcast
2:18 AM 53.6 °F 53.6 °F 100% 29.94 in 1.8 mi Calm Calm - N/A   Mostly Cloudy
2:22 AM 53.6 °F 53.6 °F 100% 29.94 in 2.0 mi Calm Calm - N/A   Mostly Cloudy
2:26 AM 53.6 °F 53.6 °F 100% 29.94 in 3.0 mi Calm Calm - N/A   Mostly Cloudy
2:34 AM 53.6 °F 53.6 °F 100% 29.94 in 2.0 mi Calm Calm - N/A   Overcast
2:36 AM 51.8 °F 51.8 °F 100% 29.94 in 1.5 mi Calm Calm - N/A   Mostly Cloudy
2:38 AM 51.8 °F 51.8 °F 100% 29.94 in 1.0 mi Calm Calm - N/A   Mostly Cloudy
2:40 AM 51.8 °F 51.8 °F 100% 29.94 in 0.8 mi Calm Calm - N/A   Mostly Cloudy
2:48 AM 51.8 °F 51.8 °F 100% 29.93 in 1.0 mi Calm Calm - N/A   Mostly Cloudy
2:56 AM 51.8 °F 51.8 °F 100% 29.94 in 1.2 mi Calm Calm - N/A   Mostly Cloudy
2:58 AM 51.8 °F 51.8 °F 100% 29.95 in 1.2 mi Calm Calm - N/A   Mostly Cloudy
3:00 AM 51.8 °F 51.8 °F 100% 29.94 in 1.5 mi Calm Calm - N/A   Mostly Cloudy
3:08 AM 51.8 °F 51.8 °F 100% 29.94 in 1.8 mi Calm Calm - N/A   Overcast
3:10 AM 51.8 °F 51.8 °F 100% 29.94 in 2.0 mi Calm Calm - N/A   Overcast
3:18 AM 53.6 °F 53.6 °F 100% 29.94 in 3.0 mi Calm Calm - N/A   Overcast
3:20 AM 53.6 °F 53.6 °F 100% 29.94 in 2.5 mi Calm Calm - N/A   Overcast
3:26 AM 51.8 °F 51.8 °F 100% 29.94 in 1.8 mi Calm Calm - N/A   Overcast
3:32 AM 51.8 °F 51.8 °F 100% 29.94 in 2.0 mi Calm Calm - N/A   Overcast
3:38 AM 53.6 °F 53.6 °F 100% 29.94 in 3.0 mi Calm Calm - N/A   Overcast
3:46 AM 51.8 °F 51.8 °F 100% 29.93 in 2.0 mi Calm Calm - N/A   Overcast
3:48 AM 51.8 °F 51.8 °F 100% 29.93 in 1.8 mi Calm Calm - N/A   Overcast
3:56 AM 53.6 °F 53.6 °F 100% 29.93 in 2.5 mi Calm Calm - N/A   Overcast
3:58 AM 52.7 °F 52.7 °F 100% 29.94 in 3.0 mi Calm Calm - N/A   Overcast
4:20 AM 51.8 °F 51.8 °F 100% 29.93 in 2.5 mi Calm Calm - N/A   Overcast
4:24 AM 51.8 °F 51.8 °F 100% 29.93 in 3.0 mi Calm Calm - N/A   Overcast
4:26 AM 51.8 °F 51.8 °F 100% 29.93 in 2.5 mi Calm Calm - N/A   Overcast
4:28 AM 51.8 °F 51.8 °F 100% 29.93 in 1.8 mi Calm Calm - N/A   Overcast
4:30 AM 51.8 °F 51.8 °F 100% 29.93 in 1.5 mi Calm Calm - N/A   Overcast
4:32 AM 51.8 °F 51.8 °F 100% 29.93 in 1.2 mi Calm Calm - N/A   Overcast
4:34 AM 51.8 °F 51.8 °F 100% 29.93 in 0.8 mi Calm Calm - N/A   Overcast
4:36 AM 51.8 °F 51.8 °F 100% 29.93 in 0.5 mi Calm Calm - N/A Fog Fog
4:40 AM 50.0 °F 50.0 °F 100% 29.93 in 0.2 mi Calm Calm - N/A Fog Fog
4:48 AM 51.8 °F 51.8 °F 100% 29.93 in 0.5 mi Calm Calm - N/A Fog Fog
4:58 AM 51.1 °F 51.1 °F 100% 29.94 in 0.5 mi Calm Calm - N/A Fog Fog
5:00 AM 51.8 °F 51.8 °F 100% 29.93 in 0.2 mi Calm Calm - N/A Fog Fog
5:14 AM 51.8 °F 51.8 °F 100% 29.93 in 0.5 mi Calm Calm - N/A Fog Fog
5:16 AM 51.8 °F 51.8 °F 100% 29.93 in 0.8 mi Calm Calm - N/A   Clear
5:18 AM 51.8 °F 51.8 °F 100% 29.93 in 1.5 mi Calm Calm - N/A   Clear
5:20 AM 51.8 °F 51.8 °F 100% 29.93 in 2.5 mi Calm Calm - N/A   Clear
5:22 AM 51.8 °F 51.8 °F 100% 29.93 in 1.5 mi Calm Calm - N/A   Clear
5:24 AM 50.0 °F 50.0 °F 100% 29.93 in 1.0 mi Calm Calm - N/A   Clear
5:26 AM 50.0 °F 50.0 °F 100% 29.93 in 0.8 mi Calm Calm - N/A   Clear
5:28 AM 50.0 °F 50.0 °F 100% 29.93 in 0.5 mi Calm Calm - N/A Fog Fog
5:30 AM 50.0 °F 50.0 °F 100% 29.93 in 0.2 mi Calm Calm - N/A Fog Fog
5:31 AM 50.0 °F 50.0 °F 100% 29.93 in 0.2 mi Calm Calm - N/A Fog Fog
5:58 AM 49.5 °F 49.3 °F 99% 29.94 in 0.2 mi Calm Calm - N/A Fog Fog
6:40 AM 50.0 °F 50.0 °F 100% 29.94 in 0.2 mi Calm Calm - N/A Fog Fog
6:50 AM 50.0 °F 50.0 °F 100% 29.94 in 0.2 mi Calm Calm - N/A Fog Fog
6:54 AM 50.0 °F 50.0 °F 100% 29.94 in 0.2 mi Calm Calm - N/A Fog Fog
6:58 AM 50.7 °F 50.7 °F 100% 29.95 in 0.2 mi Calm Calm - N/A Fog Fog
7:00 AM 51.8 °F 51.8 °F 100% 29.94 in 0.5 mi Calm Calm - N/A Fog Fog
7:02 AM 51.8 °F 51.8 °F 100% 29.94 in 0.8 mi Calm Calm - N/A   Mostly Cloudy
7:04 AM 51.8 °F 51.8 °F 100% 29.94 in 1.2 mi Calm Calm - N/A   Mostly Cloudy
7:06 AM 51.8 °F 51.8 °F 100% 29.94 in 1.8 mi Calm Calm - N/A   Mostly Cloudy
7:08 AM 51.8 °F 51.8 °F 100% 29.94 in 2.0 mi Calm Calm - N/A   Mostly Cloudy
7:14 AM 51.8 °F 51.8 °F 100% 29.95 in 3.0 mi Calm Calm - N/A   Mostly Cloudy
7:38 AM 53.6 °F 53.6 °F 100% 29.95 in 4.0 mi Calm Calm - N/A   Scattered Clouds
7:54 AM 53.6 °F 53.6 °F 100% 29.95 in 3.0 mi East 2.3 mph - N/A   Scattered Clouds
7:58 AM 54.3 °F 54.3 °F 100% 29.96 in 3.0 mi Calm Calm - N/A   Scattered Clouds
8:02 AM 55.4 °F 55.4 °F 100% 29.95 in 2.5 mi Calm Calm - N/A   Scattered Clouds
8:06 AM 55.4 °F 55.4 °F 100% 29.95 in 2.5 mi Calm Calm - N/A   Mostly Cloudy
8:12 AM 55.4 °F 55.4 °F 100% 29.96 in 3.0 mi Calm Calm - N/A   Mostly Cloudy
8:34 AM 55.4 °F 55.4 °F 100% 29.96 in 5.0 mi Calm Calm - N/A   Mostly Cloudy
8:42 AM 55.4 °F 55.4 °F 100% 29.96 in 6.0 mi Calm Calm - N/A   Mostly Cloudy
8:52 AM 55.4 °F 55.4 °F 100% 29.96 in 6.0 mi SW 4.6 mph - N/A   Overcast
8:54 AM 55.4 °F 55.4 °F 100% 29.96 in 7.0 mi West 2.3 mph - N/A   Overcast
8:58 AM 56.1 °F 56.1 °F 100% 29.97 in 7.0 mi SSW 5.8 mph - N/A   Overcast
9:08 AM 57.2 °F 57.2 °F 100% 29.96 in 7.0 mi South 5.8 mph - N/A   Mostly Cloudy
9:14 AM 57.2 °F 57.2 °F 100% 29.96 in 7.0 mi South 4.6 mph - N/A   Mostly Cloudy
9:26 AM 57.2 °F 57.2 °F 100% 29.96 in 7.0 mi Variable 2.3 mph - N/A   Mostly Cloudy
9:28 AM 57.2 °F 57.2 °F 100% 29.96 in 7.0 mi SSW 4.6 mph - N/A   Mostly Cloudy
9:32 AM 57.2 °F 57.2 °F 100% 29.97 in 8.0 mi South 3.5 mph - N/A   Mostly Cloudy
9:42 AM 57.2 °F 57.2 °F 100% 29.97 in 10.0 mi SW 4.6 mph - N/A   Mostly Cloudy
9:54 AM 57.2 °F 57.2 °F 100% 29.97 in 10.0 mi Variable 4.6 mph - N/A   Overcast
9:58 AM 57.0 °F 57.0 °F 100% 29.98 in 10.0 mi SW 5.8 mph - N/A   Overcast
10:58 AM 58.3 °F 58.1 °F 99% 29.98 in 10.0 mi SW 3.5 mph - N/A   Overcast
11:38 AM 59.0 °F 59.0 °F 100% 29.97 in 10.0 mi SW 8.1 mph - N/A   Overcast
11:58 AM 58.8 °F 58.5 °F 99% 29.99 in 10.0 mi SW 4.6 mph - N/A   Overcast
12:58 PM 60.4 °F 58.8 °F 94% 29.98 in 10.0 mi SW 5.8 mph - N/A   Overcast
1:58 PM 64.0 °F 58.1 °F 81% 29.96 in 10.0 mi SSW 8.1 mph - N/A   Overcast
2:16 PM 64.4 °F 57.2 °F 77% 29.95 in 10.0 mi Variable 4.6 mph - N/A   Mostly Cloudy
2:18 PM 64.4 °F 57.2 °F 77% 29.95 in 10.0 mi SW 8.1 mph - N/A   Mostly Cloudy
2:22 PM 64.4 °F 57.2 °F 77% 29.95 in 10.0 mi SW 6.9 mph - N/A   Mostly Cloudy
2:28 PM 64.4 °F 57.2 °F 77% 29.95 in 10.0 mi SW 10.4 mph - N/A   Mostly Cloudy
2:42 PM 64.4 °F 57.2 °F 77% 29.94 in 10.0 mi Variable 6.9 mph - N/A   Overcast
2:44 PM 66.2 °F 57.2 °F 73% 29.94 in 10.0 mi Variable 4.6 mph - N/A   Overcast
2:48 PM 66.2 °F 57.2 °F 73% 29.94 in 10.0 mi SW 8.1 mph - N/A   Mostly Cloudy
2:58 PM 66.7 °F 57.7 °F 73% 29.95 in 10.0 mi SW 8.1 mph - N/A   Mostly Cloudy
3:20 PM 66.2 °F 57.2 °F 73% 29.94 in 10.0 mi SW 4.6 mph - N/A   Mostly Cloudy
3:32 PM 66.2 °F 57.2 °F 73% 29.93 in 10.0 mi SSW 10.4 mph - N/A   Mostly Cloudy
3:58 PM 68.4 °F 57.2 °F 67% 29.93 in 10.0 mi SW 9.2 mph - N/A   Partly Cloudy
4:45 PM 68.0 °F 55.4 °F 64% 29.93 in 10.0 mi WNW 6.9 mph - N/A   Light Drizzle
4:58 PM 66.7 °F 57.0 °F 71% 29.94 in 10.0 mi Variable 4.6 mph - 0.00 in Rain Light Rain
5:06 PM 66.2 °F 57.2 °F 73% 29.93 in 10.0 mi NW 4.6 mph - N/A   Mostly Cloudy
5:15 PM 66.2 °F 57.2 °F 73% 29.93 in 10.0 mi NNW 2.3 mph - N/A   Light Drizzle
5:45 PM 64.4 °F 60.8 °F 88% 29.93 in 2.5 mi Calm Calm - N/A Rain Rain
5:53 PM 62.6 °F 62.6 °F 100% 29.93 in 4.0 mi Calm Calm - N/A Rain Light Rain
5:58 PM 63.0 °F 62.2 °F 97% 29.94 in 6.0 mi Calm Calm - 0.04 in Rain Light Rain
6:16 PM 62.6 °F 62.6 °F 100% 29.93 in 10.0 mi Calm Calm - N/A   Overcast
6:45 PM 62.6 °F 62.6 °F 100% 29.93 in 10.0 mi Calm Calm - N/A Rain Light Rain
6:58 PM 62.4 °F 62.4 °F 100% 29.95 in 10.0 mi Calm Calm - 0.02 in Rain Light Rain
6:59 PM 62.6 °F 62.6 °F 100% 29.93 in 10.0 mi Calm Calm - N/A   Partly Cloudy
7:58 PM 63.5 °F 63.3 °F 99% 29.96 in 10.0 mi WSW 4.6 mph - 0.00 in   Mostly Cloudy
8:58 PM 58.8 °F 58.8 °F 100% 29.97 in 5.0 mi Calm Calm - N/A   Clear
9:44 PM 57.2 °F 57.2 °F 100% 29.98 in 2.0 mi Calm Calm - N/A   Clear
9:46 PM 55.4 °F 55.4 °F 100% 29.98 in 1.5 mi Calm Calm - N/A   Clear
9:48 PM 55.4 °F 55.4 °F 100% 29.98 in 1.0 mi Calm Calm - N/A   Clear
9:50 PM 55.4 °F 55.4 °F 100% 29.98 in 0.5 mi Calm Calm - N/A Fog Fog
9:56 PM 55.4 °F 55.4 °F 100% 29.99 in 0.2 mi Calm Calm - N/A Fog Fog
9:58 PM 55.4 °F 55.4 °F 100% 30.00 in 0.2 mi Calm Calm - N/A Fog Fog
10:00 PM 55.4 °F 55.4 °F 100% 29.99 in 0.5 mi Calm Calm - N/A Fog Fog
10:06 PM 57.2 °F 57.2 °F 100% 29.99 in 0.8 mi Calm Calm - N/A   Partly Cloudy
10:08 PM 57.2 °F 57.2 °F 100% 29.99 in 1.0 mi Calm Calm - N/A   Partly Cloudy
10:12 PM 57.2 °F 57.2 °F 100% 29.99 in 1.8 mi Calm Calm - N/A   Partly Cloudy
10:14 PM 57.2 °F 57.2 °F 100% 29.99 in 2.0 mi Calm Calm - N/A   Clear
10:18 PM 57.2 °F 57.2 °F 100% 29.99 in 4.0 mi Calm Calm - N/A   Clear
10:26 PM 55.4 °F 55.4 °F 100% 29.99 in 2.5 mi Calm Calm - N/A   Clear
10:28 PM 55.4 °F 55.4 °F 100% 29.99 in 1.5 mi Calm Calm - N/A   Clear
10:30 PM 55.4 °F 55.4 °F 100% 29.99 in 1.0 mi Calm Calm - N/A   Clear
10:32 PM 53.6 °F 53.6 °F 100% 29.99 in 0.8 mi Calm Calm - N/A   Clear
10:52 PM 55.4 °F 55.4 °F 100% 29.99 in 0.8 mi Calm Calm - N/A   Clear
10:56 PM 55.4 °F 55.4 °F 100% 29.99 in 1.0 mi Calm Calm - N/A   Clear
10:58 PM 55.4 °F 55.4 °F 100% 29.99 in 1.0 mi Calm Calm - N/A   Clear
11:00 PM 55.4 °F 55.4 °F 100% 29.98 in 1.8 mi Calm Calm - N/A   Clear
11:02 PM 55.4 °F 55.4 °F 100% 29.98 in 2.0 mi Calm Calm - N/A   Clear
11:04 PM 55.4 °F 55.4 °F 100% 29.99 in 1.5 mi Calm Calm - N/A   Clear
11:06 PM 53.6 °F 53.6 °F 100% 29.98 in 1.2 mi Calm Calm - N/A   Clear
11:08 PM 53.6 °F 53.6 °F 100% 29.99 in 1.0 mi Calm Calm - N/A   Clear
11:14 PM 53.6 °F 53.6 °F 100% 29.98 in 1.2 mi Calm Calm - N/A   Clear
11:16 PM 55.4 °F 55.4 °F 100% 29.98 in 1.8 mi Calm Calm - N/A   Clear
11:18 PM 55.4 °F 55.4 °F 100% 29.98 in 2.5 mi Variable 1.2 mph - N/A   Clear
11:20 PM 55.4 °F 55.4 °F 100% 29.98 in 3.0 mi Calm Calm - N/A   Clear
11:26 PM 53.6 °F 53.6 °F 100% 29.98 in 2.0 mi Calm Calm - N/A   Clear
11:28 PM 53.6 °F 53.6 °F 100% 29.98 in 1.2 mi ENE 2.3 mph - N/A   Clear
11:30 PM 53.6 °F 53.6 °F 100% 29.98 in 0.8 mi Calm Calm - N/A   Clear
11:34 PM 53.6 °F 53.6 °F 100% 29.98 in 0.5 mi Calm Calm - N/A Fog Fog
11:38 PM 53.6 °F 53.6 °F 100% 29.98 in 0.2 mi Calm Calm - N/A Fog Fog
11:52 PM 53.6 °F 53.6 °F 100% 29.98 in 0.5 mi Calm Calm - N/A Fog Fog
11:58 PM 54.7 °F 54.7 °F 100% 30.00 in 0.5 mi Calm Calm - N/A Fog Fog